Location: Penum?ka
(16.4840°N, 80.5772°E)
Time: 05:02:13
(UTC+00:00)

BlueWalker 3 - Visible Passes

Search period start: 15 December 2025 00:00
Search period end: 25 December 2025 00:00
Orbit: 454 x 462 km, 53.2° (Epoch: 14 December)

Date Brightness Start Highest point End Pass type
(mag) Time Alt. Az. Time Alt. Az. Time Alt. Az.
15 Dec 5.1 12:41:34 10° W 12:43:43 15° WSW 12:45:52 10° SSW visible
16 Dec 4.9 00:31:02 10° S 00:33:45 20° ESE 00:36:29 10° ENE visible
16 Dec 5.1 23:56:55 10° SSE 23:58:52 14° ESE 00:00:50 10° E visible
19 Dec 1.8 00:22:45 10° SW 00:26:14 52° NW 00:29:43 10° NNE visible
19 Dec 1.6 23:47:43 10° SW 23:51:16 82° NW 23:54:50 10° NE visible
20 Dec 2.9 23:17:26 38° ENE 23:17:26 38° ENE 23:19:51 10° NE visible
